Location: Sternwarte_Laufen
(47.9344°N, 12.9346°E)
Time: 02:45:57
(UTC+02:00)

Envisat - Visible Passes

Search period start: 25 April 2017 00:00
Search period end: 05 May 2017 00:00
Orbit: 764 x 766 km, 98.2° (Epoch: 23 April)

Date Brightness Start Highest point End Pass type
(mag) Time Alt. Az. Time Alt. Az. Time Alt. Az.
25 Apr 3.0 20:50:14 10° SSE 20:55:17 71° ENE 21:00:22 10° N visible
25 Apr 5.5 22:31:32 10° SW 22:34:50 17° W 22:38:08 10° NW visible
26 Apr 4.5 21:53:10 10° SSW 21:57:46 34° W 22:02:25 10° NNW visible
27 Apr 3.3 21:15:51 10° S 21:20:55 71° WSW 21:26:01 10° NNW visible
28 Apr 5.2 22:19:50 10° SW 22:23:38 21° W 22:27:29 10° NW visible
29 Apr 4.1 21:41:50 10° S 21:46:39 42° W 21:51:29 10° NNW visible
30 Apr 3.1 21:04:46 10° SSE 21:09:51 87° WSW 21:14:58 10° NNW visible
30 Apr 5.6 22:47:30 10° WSW 22:49:38 12° W 22:51:45 10° WNW visible
01 May 4.9 22:08:17 10° SSW 22:12:29 26° W 22:16:43 10° NW visible
02 May 3.8 21:30:36 10° S 21:35:33 53° W 21:40:32 10° NNW visible
03 May 3.0 20:53:44 10° SSE 20:58:49 77° ENE 21:03:55 10° N visible
03 May 5.5 22:35:25 10° SW 22:38:25 16° W 22:41:28 10° NW visible
04 May 4.6 21:56:50 10° SSW 22:01:21 32° W 22:05:53 10° NNW visible
